TRA36E LGIR-EHEH

Flight info

Callsign TRA36E
Flight time N/A
Altitude 34000
Route EPALO UM749 DIRMI UL613 YNN UL611 TUMBO DCT RODON DCT NUPSO/N0443F360 DCT KULEN DCT DARZA DCT VEKEN DCT ERKIR L608 KUNOD DCT EDISA DCT LIMGO DCT DIK DCT LNO
Aircraft B738/M-SDE2E3FGHIRWXY/LB1

Departure

Time 2026-05-06 18:56
Airport Heraklion International Nikos Kazantzakis Airport (LGIR)

Arrival

Time N/A
Airport Eindhoven Airport (EHEH)
Time Latitude Longitude Altitude Speed Heading
2026-05-06 18:35 35.33884 25.17081 82 ft 0 kts 158°
2026-05-06 18:50 35.33883 25.17081 86 ft 1 kts 158°
2026-05-06 18:50 35.33876 25.17072 87 ft 2 kts 256°
2026-05-06 18:50 35.33891 25.17059 85 ft 5 kts 343°
2026-05-06 18:50 35.33928 25.17093 86 ft 9 kts 55°
2026-05-06 18:51 35.33934 25.17182 83 ft 11 kts 94°
2026-05-06 18:51 35.33926 25.17279 83 ft 12 kts 96°
2026-05-06 18:51 35.33918 25.17381 83 ft 12 kts 95°
2026-05-06 18:51 35.33912 25.17489 83 ft 13 kts 95°
2026-05-06 18:52 35.33905 25.17597 85 ft 13 kts 95°
2026-05-06 18:52 35.33898 25.17702 84 ft 12 kts 95°
2026-05-06 18:52 35.33891 25.17804 84 ft 12 kts 95°
2026-05-06 18:52 35.33884 25.17905 84 ft 12 kts 94°
2026-05-06 18:53 35.33876 25.18013 84 ft 13 kts 94°
2026-05-06 18:53 35.33869 25.18122 89 ft 13 kts 94°
2026-05-06 18:53 35.33862 25.18228 89 ft 12 kts 95°
2026-05-06 18:53 35.33853 25.18344 89 ft 17 kts 95°
2026-05-06 18:54 35.33842 25.18508 87 ft 21 kts 96°
2026-05-06 18:54 35.33827 25.18691 83 ft 21 kts 94°
2026-05-06 18:54 35.33813 25.18871 83 ft 21 kts 90°
2026-05-06 18:54 35.33868 25.19023 85 ft 15 kts 55°
2026-05-06 18:55 35.33904 25.19016 87 ft 6 kts 293°
2026-05-06 18:55 35.33908 25.18984 85 ft 0 kts 272°
2026-05-06 18:55 35.33908 25.18983 85 ft 1 kts 272°
2026-05-06 18:55 35.33924 25.18746 84 ft 69 kts 275°
2026-05-06 18:56 35.33989 25.17813 89 ft 148 kts 275°
2026-05-06 18:56 35.34102 25.16356 535 ft 179 kts 276°
2026-05-06 18:56 35.34363 25.14823 1439 ft 189 kts 303°
2026-05-06 18:56 35.35374 25.13900 2503 ft 194 kts 339°
2026-05-06 18:57 35.36750 25.13408 2830 ft 222 kts 345°
2026-05-06 18:57 35.38310 25.12946 3173 ft 237 kts 346°
2026-05-06 18:57 35.39931 25.12456 3785 ft 240 kts 345°
2026-05-06 18:57 35.41560 25.11938 4425 ft 243 kts 345°
2026-05-06 18:58 35.43229 25.11384 4924 ft 257 kts 344°
2026-05-06 18:58 35.44965 25.10787 5529 ft 266 kts 344°
2026-05-06 18:58 35.46754 25.10158 6358 ft 268 kts 344°
2026-05-06 18:58 35.48553 25.09514 7167 ft 270 kts 344°
2026-05-06 18:59 35.50362 25.08858 7937 ft 273 kts 343°
2026-05-06 18:59 35.52198 25.08187 8718 ft 275 kts 343°
2026-05-06 18:59 35.54044 25.07509 9506 ft 278 kts 343°
2026-05-06 18:59 35.55900 25.06825 10253 ft 281 kts 343°
2026-05-06 19:00 35.57835 25.06110 10585 ft 300 kts 343°
2026-05-06 19:00 35.59907 25.05342 10772 ft 322 kts 343°
2026-05-06 19:00 35.62079 25.04536 11048 ft 339 kts 343°
2026-05-06 19:00 35.63632 25.03960 11433 ft 343 kts 343°
2026-05-06 19:01 35.66682 25.02829 12384 ft 346 kts 342°
2026-05-06 19:01 35.68989 25.01972 13105 ft 348 kts 342°
2026-05-06 19:01 35.71325 25.01103 13791 ft 351 kts 342°
2026-05-06 19:01 35.72873 25.00478 14197 ft 353 kts 340°
2026-05-06 19:02 35.75946 24.99062 15029 ft 356 kts 338°
2026-05-06 19:02 35.78265 24.97945 15672 ft 358 kts 338°
2026-05-06 19:02 35.79808 24.97201 16092 ft 359 kts 338°
2026-05-06 19:02 35.82152 24.96077 16721 ft 362 kts 338°
2026-05-06 19:03 35.84514 24.94952 17317 ft 365 kts 338°
2026-05-06 19:03 35.86891 24.93827 17904 ft 368 kts 338°
2026-05-06 19:03 35.89293 24.92694 18493 ft 370 kts 338°
2026-05-06 19:03 35.91709 24.91556 18990 ft 373 kts 338°
2026-05-06 19:04 35.94144 24.90409 19476 ft 376 kts 338°
2026-05-06 19:04 35.96569 24.89265 19966 ft 379 kts 338°
2026-05-06 19:04 35.99045 24.88098 20469 ft 381 kts 338°
2026-05-06 19:04 36.01535 24.86922 20937 ft 385 kts 338°
2026-05-06 19:05 36.04047 24.85714 21410 ft 388 kts 335°
2026-05-06 19:05 36.06423 24.84173 21839 ft 390 kts 327°
2026-05-06 19:05 36.08613 24.82158 22283 ft 393 kts 321°
2026-05-06 19:05 36.10758 24.80015 22746 ft 396 kts 321°
2026-05-06 19:06 36.12903 24.77854 23176 ft 399 kts 321°
2026-05-06 19:06 36.15065 24.75677 23603 ft 402 kts 321°
2026-05-06 19:06 36.17245 24.73493 23964 ft 405 kts 321°
2026-05-06 19:06 36.19418 24.71323 24347 ft 406 kts 321°
2026-05-06 19:07 36.21626 24.69125 24740 ft 408 kts 321°
2026-05-06 19:07 36.23847 24.66915 25121 ft 409 kts 321°
2026-05-06 19:07 36.26074 24.64700 25485 ft 411 kts 321°
2026-05-06 19:07 36.28312 24.62473 25837 ft 413 kts 321°
2026-05-06 19:08 36.30573 24.60221 26188 ft 415 kts 321°
2026-05-06 19:08 36.32833 24.57968 26524 ft 417 kts 321°
2026-05-06 19:08 36.35071 24.55734 26855 ft 419 kts 321°
2026-05-06 19:08 36.37349 24.53460 27187 ft 421 kts 321°
2026-05-06 19:09 36.39651 24.51159 27507 ft 423 kts 321°
2026-05-06 19:09 36.41948 24.48861 27829 ft 425 kts 321°
2026-05-06 19:09 36.44228 24.46579 28135 ft 427 kts 321°
2026-05-06 19:09 36.46552 24.44252 28437 ft 428 kts 321°
2026-05-06 19:10 36.48877 24.41920 28730 ft 430 kts 320°
2026-05-06 19:10 36.51209 24.39578 29016 ft 432 kts 320°
2026-05-06 19:10 36.53563 24.37212 29301 ft 434 kts 320°
2026-05-06 19:10 36.55889 24.34871 29576 ft 436 kts 320°
2026-05-06 19:11 36.58255 24.32487 29889 ft 437 kts 320°
2026-05-06 19:11 36.60612 24.30111 30295 ft 435 kts 320°
2026-05-06 19:11 36.62961 24.27742 30680 ft 432 kts 320°
2026-05-06 19:11 36.65270 24.25411 31016 ft 431 kts 320°
2026-05-06 19:12 36.67592 24.23065 31317 ft 431 kts 320°
2026-05-06 19:12 36.69916 24.20714 31619 ft 430 kts 320°
2026-05-06 19:12 36.72243 24.18360 31968 ft 428 kts 320°
2026-05-06 19:12 36.74534 24.16039 32310 ft 426 kts 320°
2026-05-06 19:13 36.76830 24.13711 32612 ft 425 kts 320°
2026-05-06 19:13 36.79133 24.11375 32907 ft 424 kts 320°
2026-05-06 19:13 36.81400 24.09073 33228 ft 423 kts 320°
2026-05-06 19:13 36.83684 24.06751 33547 ft 421 kts 320°
2026-05-06 19:14 36.85976 24.04421 33843 ft 420 kts 320°
2026-05-06 19:14 36.88219 24.02138 34126 ft 419 kts 320°
2026-05-06 19:14 36.90484 23.99832 34359 ft 419 kts 320°
2026-05-06 19:14 36.92744 23.97529 34535 ft 419 kts 320°
2026-05-06 19:15 36.94995 23.95236 34711 ft 420 kts 320°
2026-05-06 19:15 36.97264 23.92924 34920 ft 420 kts 320°
2026-05-06 19:15 36.99540 23.90603 35095 ft 420 kts 320°
2026-05-06 19:15 37.01779 23.88318 35276 ft 420 kts 320°
2026-05-06 19:16 37.04064 23.85983 35461 ft 420 kts 320°
2026-05-06 19:16 37.06317 23.83679 35651 ft 421 kts 320°
2026-05-06 19:16 37.08591 23.81352 35822 ft 421 kts 320°
2026-05-06 19:16 37.10866 23.79022 36003 ft 421 kts 319°
2026-05-06 19:17 37.13123 23.76707 36058 ft 424 kts 319°
2026-05-06 19:17 37.17698 23.72011 36068 ft 426 kts 319°
2026-05-06 19:18 37.22271 23.67310 36056 ft 421 kts 319°
2026-05-06 19:18 37.26773 23.62675 36067 ft 417 kts 319°
2026-05-06 19:19 37.31241 23.58067 36068 ft 415 kts 319°
2026-05-06 19:19 37.35701 23.53459 36070 ft 415 kts 319°
2026-05-06 19:20 37.40159 23.48846 36069 ft 415 kts 319°
2026-05-06 19:20 37.44613 23.44231 36073 ft 416 kts 319°
2026-05-06 19:21 37.49090 23.39583 36081 ft 418 kts 319°
2026-05-06 19:21 37.53582 23.34913 36073 ft 420 kts 319°
2026-05-06 19:22 37.58095 23.30213 36074 ft 422 kts 319°
2026-05-06 19:22 37.62631 23.25482 36068 ft 423 kts 319°
2026-05-06 19:23 37.67165 23.20745 36075 ft 424 kts 319°
2026-05-06 19:23 37.71705 23.15994 36079 ft 424 kts 319°
2026-05-06 19:24 37.76250 23.11230 36072 ft 424 kts 319°
2026-05-06 19:24 37.80774 23.06480 36075 ft 423 kts 319°
2026-05-06 19:25 37.85296 23.01724 36076 ft 423 kts 319°
2026-05-06 19:25 37.89805 22.96973 36075 ft 421 kts 319°
2026-05-06 19:26 37.94308 22.92186 36076 ft 420 kts 317°
2026-05-06 19:26 37.98614 22.87201 36079 ft 419 kts 316°
2026-05-06 19:27 38.02883 22.82185 36076 ft 418 kts 316°
2026-05-06 19:27 38.07167 22.77199 36075 ft 417 kts 316°
2026-05-06 19:28 38.11449 22.72227 36078 ft 417 kts 316°
2026-05-06 19:28 38.15715 22.67268 36076 ft 416 kts 316°
2026-05-06 19:29 38.19973 22.62311 36079 ft 416 kts 316°
2026-05-06 19:29 38.24242 22.57333 36081 ft 416 kts 316°
2026-05-06 19:30 38.28509 22.52347 36081 ft 417 kts 316°
2026-05-06 19:30 38.32792 22.47334 36081 ft 417 kts 316°
2026-05-06 19:31 38.37058 22.42333 36085 ft 417 kts 316°
2026-05-06 19:31 38.43462 22.34809 36087 ft 418 kts 316°
2026-05-06 19:32 38.47737 22.29775 36098 ft 419 kts 316°
2026-05-06 19:32 38.52007 22.24739 36096 ft 420 kts 316°
2026-05-06 19:33 38.56312 22.19654 36098 ft 420 kts 316°
2026-05-06 19:33 38.60606 22.14575 36100 ft 420 kts 316°
2026-05-06 19:34 38.64897 22.09490 36103 ft 420 kts 316°
2026-05-06 19:34 38.69170 22.04418 36106 ft 420 kts 316°
2026-05-06 19:35 38.73441 21.99338 36102 ft 419 kts 316°
2026-05-06 19:35 38.77700 21.94264 36105 ft 417 kts 316°
2026-05-06 19:36 38.81945 21.89198 36110 ft 416 kts 316°
2026-05-06 19:36 38.86180 21.84135 36111 ft 415 kts 316°
2026-05-06 19:37 38.90390 21.79094 36107 ft 414 kts 316°
2026-05-06 19:37 38.93883 21.74904 36106 ft 413 kts 316°
2026-05-06 19:38 38.98787 21.69012 36105 ft 413 kts 316°
2026-05-06 19:38 39.02961 21.63988 36119 ft 412 kts 316°
2026-05-06 19:39 39.07166 21.58918 36109 ft 412 kts 316°
2026-05-06 19:39 39.11318 21.53905 36116 ft 411 kts 316°
2026-05-06 19:40 39.15495 21.48851 36107 ft 411 kts 316°
2026-05-06 19:40 39.19668 21.43793 36105 ft 411 kts 316°
2026-05-06 19:41 39.23817 21.38757 36121 ft 411 kts 316°
2026-05-06 19:41 39.27976 21.33699 36112 ft 411 kts 316°
2026-05-06 19:42 39.32152 21.28613 36118 ft 411 kts 316°
2026-05-06 19:42 39.36291 21.23562 36114 ft 411 kts 316°
2026-05-06 19:43 39.40448 21.18482 36104 ft 410 kts 316°
2026-05-06 19:43 39.44578 21.13425 36132 ft 410 kts 316°
2026-05-06 19:44 39.48699 21.08369 36123 ft 410 kts 316°
2026-05-06 19:44 39.52855 21.03263 36121 ft 410 kts 316°
2026-05-06 19:45 39.56992 20.98172 36138 ft 410 kts 316°
2026-05-06 19:45 39.61108 20.93096 36137 ft 410 kts 316°
2026-05-06 19:46 39.65233 20.88002 36133 ft 410 kts 315°
2026-05-06 19:46 39.69371 20.82887 36130 ft 409 kts 316°
2026-05-06 19:47 39.73843 20.78335 36135 ft 410 kts 323°
2026-05-06 19:47 39.78476 20.74045 36132 ft 409 kts 323°
2026-05-06 19:48 39.83123 20.69705 36127 ft 409 kts 322°
2026-05-06 19:48 39.87710 20.65373 36124 ft 409 kts 322°
2026-05-06 19:49 39.92321 20.60997 36122 ft 409 kts 322°
2026-05-06 19:49 39.96910 20.56633 36117 ft 408 kts 322°
2026-05-06 19:50 40.00716 20.53010 36110 ft 408 kts 322°
2026-05-06 19:50 40.05284 20.48654 36100 ft 407 kts 322°
2026-05-06 19:51 40.09860 20.44273 36117 ft 406 kts 322°
2026-05-06 19:51 40.14406 20.39894 36107 ft 407 kts 321°
2026-05-06 19:52 40.18986 20.35473 36101 ft 408 kts 321°
2026-05-06 19:52 40.23541 20.31070 36113 ft 408 kts 321°
2026-05-06 19:53 40.28105 20.26651 36112 ft 410 kts 321°
2026-05-06 19:53 40.32707 20.22189 36101 ft 411 kts 321°
2026-05-06 19:54 40.37298 20.17729 36092 ft 412 kts 321°
2026-05-06 19:54 40.41893 20.13257 36100 ft 413 kts 321°
2026-05-06 19:55 40.46506 20.08761 36102 ft 413 kts 321°
2026-05-06 19:55 40.51115 20.04260 36098 ft 413 kts 321°
2026-05-06 19:56 40.55744 19.99731 36087 ft 414 kts 321°
2026-05-06 19:56 40.60350 19.95219 36099 ft 414 kts 321°
2026-05-06 19:57 40.64941 19.90713 36093 ft 413 kts 321°
2026-05-06 19:57 40.69570 19.86160 36070 ft 412 kts 321°
2026-05-06 19:58 40.74153 19.81645 36099 ft 412 kts 320°
2026-05-06 19:58 40.78738 19.77119 36079 ft 413 kts 320°
2026-05-06 19:59 40.83338 19.72572 36093 ft 413 kts 320°
2026-05-06 19:59 40.87931 19.68023 36091 ft 413 kts 320°
2026-05-06 20:00 40.92534 19.63456 36082 ft 413 kts 320°
2026-05-06 20:00 40.97122 19.58896 36083 ft 414 kts 320°
2026-05-06 20:01 41.01723 19.54315 36098 ft 414 kts 320°
2026-05-06 20:01 41.06307 19.49742 36076 ft 414 kts 320°
2026-05-06 20:02 41.10910 19.45143 36084 ft 414 kts 320°
2026-05-06 20:02 41.15512 19.40536 36089 ft 414 kts 320°
2026-05-06 20:03 41.20108 19.35926 36086 ft 415 kts 320°
2026-05-06 20:03 41.24728 19.31284 36081 ft 415 kts 319°
2026-05-06 20:04 41.29316 19.26665 36077 ft 415 kts 319°
2026-05-06 20:04 41.33914 19.22028 36080 ft 415 kts 319°
2026-05-06 20:05 41.38525 19.17369 36081 ft 415 kts 319°
2026-05-06 20:05 41.43117 19.12723 36078 ft 415 kts 319°
2026-05-06 20:06 41.47665 19.07991 36074 ft 414 kts 316°
2026-05-06 20:06 41.52025 19.03005 36076 ft 414 kts 315°
2026-05-06 20:07 41.56385 18.97929 36077 ft 414 kts 315°
2026-05-06 20:07 41.60743 18.92879 36068 ft 414 kts 315°
2026-05-06 20:08 41.65087 18.87863 36070 ft 414 kts 315°
2026-05-06 20:08 41.69446 18.82832 36065 ft 414 kts 315°
2026-05-06 20:09 41.73805 18.77794 36066 ft 414 kts 315°
2026-05-06 20:09 41.78161 18.72749 36066 ft 414 kts 315°
2026-05-06 20:10 41.82538 18.67670 36063 ft 414 kts 315°
2026-05-06 20:10 41.86859 18.62647 36063 ft 414 kts 315°
2026-05-06 20:11 41.91227 18.57559 36061 ft 414 kts 315°
2026-05-06 20:11 41.95549 18.52517 36057 ft 414 kts 315°
2026-05-06 20:12 41.99883 18.47449 36057 ft 414 kts 314°
2026-05-06 20:12 42.04239 18.42346 36060 ft 413 kts 314°
2026-05-06 20:13 42.08566 18.37269 36054 ft 414 kts 314°
2026-05-06 20:13 42.12895 18.32179 36056 ft 414 kts 314°
2026-05-06 20:14 42.17220 18.27084 36058 ft 414 kts 314°
2026-05-06 20:14 42.21552 18.21972 36057 ft 414 kts 314°
2026-05-06 20:15 42.25884 18.16850 36059 ft 414 kts 314°
2026-05-06 20:15 42.30206 18.11729 36063 ft 414 kts 314°
2026-05-06 20:16 42.34538 18.06588 36065 ft 414 kts 314°
2026-05-06 20:16 42.38872 18.01433 36064 ft 415 kts 313°
2026-05-06 20:17 42.43192 17.96286 36058 ft 415 kts 313°
2026-05-06 20:17 42.47525 17.91114 36059 ft 415 kts 313°
2026-05-06 20:18 42.51851 17.85939 36056 ft 415 kts 313°
2026-05-06 20:18 42.56174 17.80760 36053 ft 415 kts 313°
2026-05-06 20:19 42.60518 17.75544 36048 ft 415 kts 313°
2026-05-06 20:19 42.64828 17.70358 36047 ft 415 kts 313°
2026-05-06 20:20 42.69140 17.65161 36048 ft 415 kts 313°
2026-05-06 20:20 42.73451 17.59955 36053 ft 415 kts 313°
2026-05-06 20:21 42.77755 17.54747 36048 ft 415 kts 313°
2026-05-06 20:21 42.82090 17.49492 36043 ft 415 kts 313°
2026-05-06 20:22 42.86373 17.44288 36044 ft 416 kts 313°
2026-05-06 20:22 42.90701 17.39021 36045 ft 416 kts 312°
2026-05-06 20:23 42.95023 17.33750 36048 ft 416 kts 312°
2026-05-06 20:23 42.99328 17.28490 36051 ft 417 kts 312°
2026-05-06 20:24 43.03671 17.23173 36043 ft 418 kts 312°
2026-05-06 20:24 43.07985 17.17881 36045 ft 418 kts 312°
2026-05-06 20:25 43.12318 17.12555 36039 ft 419 kts 312°
2026-05-06 20:25 43.16633 17.07240 36041 ft 419 kts 312°
2026-05-06 20:26 43.20968 17.01892 36034 ft 420 kts 312°
2026-05-06 20:26 43.25326 16.96503 36039 ft 420 kts 312°
2026-05-06 20:27 43.29666 16.91126 36038 ft 421 kts 311°
2026-05-06 20:27 43.34000 16.85745 36039 ft 421 kts 311°
2026-05-06 20:28 43.38341 16.80345 36036 ft 421 kts 311°
2026-05-06 20:28 43.42692 16.74922 36031 ft 422 kts 311°
2026-05-06 20:29 43.47011 16.69529 36031 ft 421 kts 311°
2026-05-06 20:29 43.51345 16.64103 36036 ft 422 kts 311°
2026-05-06 20:30 43.57888 16.55892 36029 ft 423 kts 311°
2026-05-06 20:31 43.62230 16.50433 36041 ft 423 kts 311°
2026-05-06 20:31 43.66560 16.44974 36020 ft 423 kts 311°
2026-05-06 20:32 43.70892 16.39503 36029 ft 422 kts 311°
2026-05-06 20:32 43.75243 16.33995 36028 ft 422 kts 311°
2026-05-06 20:33 43.79578 16.28496 36020 ft 423 kts 310°
2026-05-06 20:33 43.83918 16.22981 36023 ft 422 kts 310°
2026-05-06 20:34 43.88233 16.17485 36015 ft 422 kts 310°
2026-05-06 20:34 43.92563 16.11959 36021 ft 423 kts 310°
2026-05-06 20:35 43.96892 16.06422 36014 ft 424 kts 310°
2026-05-06 20:35 44.01215 16.00881 36014 ft 425 kts 310°
2026-05-06 20:36 44.05551 15.95312 36006 ft 425 kts 310°
2026-05-06 20:36 44.09182 15.90642 36000 ft 426 kts 310°
2026-05-06 20:37 44.14490 15.84432 35999 ft 435 kts 321°
2026-05-06 20:37 44.19033 15.81163 36015 ft 442 kts 327°
2026-05-06 20:38 44.24595 15.77455 36007 ft 444 kts 327°
2026-05-06 20:38 44.30152 15.73712 35998 ft 445 kts 327°
2026-05-06 20:39 44.35702 15.69916 36001 ft 445 kts 327°
2026-05-06 20:39 44.41234 15.66104 36006 ft 446 kts 327°
2026-05-06 20:40 44.46832 15.62234 36007 ft 447 kts 327°
2026-05-06 20:40 44.52411 15.58371 36012 ft 447 kts 327°
2026-05-06 20:41 44.57978 15.54509 36012 ft 448 kts 327°
2026-05-06 20:41 44.63556 15.50632 36008 ft 448 kts 327°
2026-05-06 20:42 44.69153 15.46733 35993 ft 449 kts 327°
2026-05-06 20:42 44.74746 15.42827 36006 ft 449 kts 327°
2026-05-06 20:43 44.80329 15.38921 35992 ft 448 kts 327°
2026-05-06 20:43 44.85899 15.35016 35988 ft 447 kts 327°
2026-05-06 20:44 44.91453 15.31112 35989 ft 447 kts 327°
2026-05-06 20:44 44.97025 15.27188 35970 ft 446 kts 327°
2026-05-06 20:45 45.02563 15.23278 35966 ft 445 kts 327°
2026-05-06 20:45 45.08100 15.19361 35983 ft 445 kts 327°
2026-05-06 20:46 45.13671 15.15411 35975 ft 446 kts 327°
2026-05-06 20:46 45.19435 15.12084 35974 ft 455 kts 339°
2026-05-06 20:47 45.25563 15.09813 35971 ft 458 kts 340°
2026-05-06 20:47 45.31732 15.07550 35948 ft 457 kts 339°
2026-05-06 20:48 45.37908 15.05186 35952 ft 458 kts 339°
2026-05-06 20:48 45.44056 15.02806 35965 ft 460 kts 339°
2026-05-06 20:49 45.49829 14.99247 35970 ft 447 kts 320°
2026-05-06 20:49 45.54454 14.93615 35970 ft 437 kts 307°
2026-05-06 20:50 45.58636 14.87308 35952 ft 439 kts 307°
2026-05-06 20:50 45.62858 14.80923 35968 ft 441 kts 307°
2026-05-06 20:51 45.67083 14.74588 35961 ft 442 kts 307°
2026-05-06 20:51 45.71337 14.68230 35965 ft 442 kts 308°
2026-05-06 20:52 45.75604 14.61845 35947 ft 441 kts 307°
2026-05-06 20:52 45.79821 14.55518 35953 ft 440 kts 307°
2026-05-06 20:53 45.84034 14.49180 35957 ft 439 kts 307°
2026-05-06 20:53 45.88227 14.42857 35954 ft 438 kts 308°
2026-05-06 20:54 45.92446 14.36478 35958 ft 438 kts 308°
2026-05-06 20:54 45.96614 14.30163 35952 ft 437 kts 308°
2026-05-06 20:55 46.00807 14.23796 35956 ft 436 kts 308°
2026-05-06 20:55 46.04964 14.17467 35942 ft 436 kts 308°
2026-05-06 20:56 46.09128 14.11111 35955 ft 436 kts 308°
2026-05-06 20:56 46.13265 14.04782 35947 ft 437 kts 307°
2026-05-06 20:57 46.17425 13.98404 35946 ft 437 kts 307°
2026-05-06 20:57 46.21592 13.91999 35941 ft 438 kts 307°
2026-05-06 20:58 46.25773 13.85560 35940 ft 439 kts 307°
2026-05-06 20:58 46.29942 13.79123 35941 ft 440 kts 307°
2026-05-06 20:59 46.34122 13.72653 35940 ft 440 kts 307°
2026-05-06 20:59 46.38303 13.66166 35942 ft 440 kts 307°
2026-05-06 21:00 46.42459 13.59703 35940 ft 440 kts 307°
2026-05-06 21:00 46.46619 13.53217 35933 ft 440 kts 307°
2026-05-06 21:01 46.50799 13.46682 35941 ft 439 kts 306°
2026-05-06 21:01 46.54941 13.40195 35944 ft 439 kts 306°
2026-05-06 21:02 46.59208 13.33852 35933 ft 440 kts 310°
2026-05-06 21:02 46.63674 13.27782 35957 ft 440 kts 310°
2026-05-06 21:03 46.68152 13.21718 35938 ft 440 kts 310°
2026-05-06 21:03 46.72614 13.15601 35957 ft 440 kts 310°
2026-05-06 21:04 46.77085 13.09422 35960 ft 442 kts 310°
2026-05-06 21:04 46.81544 13.03235 35957 ft 443 kts 309°
2026-05-06 21:05 46.86011 12.97024 35960 ft 444 kts 309°
2026-05-06 21:05 46.90496 12.90773 35952 ft 446 kts 309°
2026-05-06 21:06 46.94989 12.84498 35946 ft 448 kts 309°
2026-05-06 21:06 46.99495 12.78189 35919 ft 449 kts 309°
2026-05-06 21:07 47.04013 12.71847 35913 ft 451 kts 309°
2026-05-06 21:07 47.08534 12.65486 35918 ft 452 kts 309°
2026-05-06 21:08 47.13081 12.59070 35893 ft 454 kts 309°
2026-05-06 21:08 47.17641 12.52623 35896 ft 453 kts 310°
2026-05-06 21:09 47.22160 12.46219 35873 ft 452 kts 309°
2026-05-06 21:09 47.26680 12.39794 35871 ft 451 kts 309°
2026-05-06 21:10 47.31175 12.33390 35887 ft 449 kts 309°
2026-05-06 21:10 47.35652 12.26994 35881 ft 448 kts 309°
2026-05-06 21:11 47.40117 12.20599 35892 ft 448 kts 309°
2026-05-06 21:11 47.44575 12.14198 35895 ft 448 kts 309°
2026-05-06 21:12 47.49067 12.07734 35888 ft 448 kts 310°
2026-05-06 21:12 47.53013 12.00776 35897 ft 437 kts 293°
2026-05-06 21:13 47.55095 11.92505 35894 ft 424 kts 276°
2026-05-06 21:13 47.56229 11.83990 35900 ft 426 kts 276°
2026-05-06 21:14 47.57374 11.75333 35903 ft 428 kts 276°
2026-05-06 21:14 47.58556 11.66677 35896 ft 431 kts 276°
2026-05-06 21:15 47.59754 11.57962 35894 ft 432 kts 277°
2026-05-06 21:15 47.60947 11.49240 35884 ft 433 kts 276°
2026-05-06 21:16 47.62135 11.40492 35903 ft 433 kts 276°
2026-05-06 21:16 47.63248 11.31713 35893 ft 432 kts 275°
2026-05-06 21:17 47.64300 11.22927 35903 ft 431 kts 275°
2026-05-06 21:17 47.65245 11.15022 35908 ft 430 kts 275°
2026-05-06 21:18 47.66289 11.06308 35906 ft 430 kts 275°
2026-05-06 21:18 47.67329 10.97603 35924 ft 429 kts 275°
2026-05-06 21:19 47.68369 10.88832 35920 ft 430 kts 275°
2026-05-06 21:19 47.69399 10.80088 35917 ft 431 kts 275°
2026-05-06 21:20 47.70423 10.71338 35924 ft 432 kts 275°
2026-05-06 21:20 47.71450 10.62502 35922 ft 433 kts 275°
2026-05-06 21:21 47.72468 10.53678 35924 ft 435 kts 275°
2026-05-06 21:21 47.73481 10.44850 35928 ft 436 kts 275°
2026-05-06 21:22 47.75052 10.36524 35927 ft 446 kts 294°
2026-05-06 21:22 47.76745 10.32626 35912 ft 454 kts 305°
2026-05-06 21:22 47.79012 10.29294 35935 ft 460 kts 316°
2026-05-06 21:23 47.84015 10.23300 35921 ft 462 kts 317°
2026-05-06 21:23 47.89043 10.17340 35913 ft 462 kts 317°
2026-05-06 21:24 47.93192 10.12322 35907 ft 461 kts 316°
2026-05-06 21:24 47.98141 10.06259 35909 ft 459 kts 316°
2026-05-06 21:25 48.03031 10.00236 35908 ft 458 kts 316°
2026-05-06 21:25 48.07934 9.94186 35917 ft 456 kts 316°
2026-05-06 21:26 48.12831 9.88131 35908 ft 455 kts 316°
2026-05-06 21:26 48.17711 9.82082 35914 ft 454 kts 316°
2026-05-06 21:27 48.22574 9.76038 35919 ft 454 kts 316°
2026-05-06 21:27 48.27414 9.70008 35912 ft 454 kts 316°
2026-05-06 21:28 48.32290 9.63918 35917 ft 455 kts 316°
2026-05-06 21:28 48.36545 9.57039 35923 ft 448 kts 303°
2026-05-06 21:29 48.40296 9.49516 35911 ft 450 kts 302°
2026-05-06 21:29 48.44061 9.41920 35899 ft 452 kts 303°
2026-05-06 21:30 48.47835 9.34387 35899 ft 453 kts 303°
2026-05-06 21:30 48.51643 9.26816 35900 ft 454 kts 303°
2026-05-06 21:31 48.55477 9.19183 35886 ft 454 kts 303°
2026-05-06 21:31 48.59261 9.11623 35887 ft 455 kts 303°
2026-05-06 21:32 48.63075 9.03982 35885 ft 454 kts 303°
2026-05-06 21:32 48.68775 8.92519 35882 ft 453 kts 303°
2026-05-06 21:33 48.72542 8.84915 35886 ft 452 kts 303°
2026-05-06 21:33 48.76312 8.77285 35881 ft 452 kts 303°
2026-05-06 21:34 48.80052 8.69692 35875 ft 451 kts 303°
2026-05-06 21:34 48.83817 8.62029 35875 ft 450 kts 304°
2026-05-06 21:35 48.87540 8.54428 35880 ft 449 kts 303°
2026-05-06 21:35 48.91259 8.46815 35884 ft 448 kts 303°
2026-05-06 21:36 48.94971 8.39194 35890 ft 448 kts 304°
2026-05-06 21:36 48.98651 8.31575 35890 ft 447 kts 301°
2026-05-06 21:37 49.01623 8.23304 35891 ft 443 kts 294°
2026-05-06 21:37 49.04343 8.14878 35892 ft 443 kts 294°
2026-05-06 21:38 49.07066 8.06464 35887 ft 443 kts 294°
2026-05-06 21:38 49.09812 7.98060 35882 ft 444 kts 294°
2026-05-06 21:39 49.12575 7.89623 35883 ft 444 kts 294°
2026-05-06 21:39 49.15333 7.81180 35881 ft 445 kts 294°
2026-05-06 21:40 49.18095 7.72695 35878 ft 445 kts 294°
2026-05-06 21:40 49.20844 7.64217 35871 ft 445 kts 294°
2026-05-06 21:41 49.23589 7.55725 35876 ft 445 kts 294°
2026-05-06 21:41 49.26315 7.47262 35881 ft 445 kts 294°
2026-05-06 21:42 49.29045 7.38759 35884 ft 445 kts 294°
2026-05-06 21:42 49.31781 7.30205 35880 ft 445 kts 294°
2026-05-06 21:43 49.34483 7.21732 35880 ft 445 kts 294°
2026-05-06 21:43 49.37192 7.13207 35888 ft 444 kts 294°
2026-05-06 21:44 49.39907 7.04633 35884 ft 444 kts 294°
2026-05-06 21:44 49.42597 6.96110 35876 ft 444 kts 294°
2026-05-06 21:45 49.45275 6.87594 35875 ft 443 kts 294°
2026-05-06 21:45 49.47954 6.79046 35882 ft 443 kts 294°
2026-05-06 21:46 49.50536 6.70781 35896 ft 443 kts 294°
2026-05-06 21:46 49.53191 6.62254 35895 ft 443 kts 294°
2026-05-06 21:47 49.55838 6.53719 35903 ft 442 kts 294°
2026-05-06 21:47 49.58483 6.45166 35910 ft 442 kts 294°
2026-05-06 21:48 49.61118 6.36615 35913 ft 442 kts 294°
2026-05-06 21:48 49.64503 6.28786 35919 ft 444 kts 316°
2026-05-06 21:49 49.66965 6.25866 35751 ft 448 kts 329°
2026-05-06 21:49 49.69794 6.23779 35460 ft 445 kts 336°
2026-05-06 21:49 49.72604 6.21973 35030 ft 441 kts 336°
2026-05-06 21:49 49.75448 6.20160 34640 ft 437 kts 336°
2026-05-06 21:50 49.78259 6.18324 34238 ft 434 kts 336°
2026-05-06 21:50 49.80998 6.16485 33840 ft 431 kts 335°
2026-05-06 21:50 49.83743 6.14618 33362 ft 428 kts 335°
2026-05-06 21:50 49.86440 6.12789 32934 ft 424 kts 336°
2026-05-06 21:51 49.89190 6.11097 32574 ft 419 kts 338°
2026-05-06 21:51 49.91889 6.09553 32171 ft 416 kts 339°
2026-05-06 21:51 49.94608 6.08038 31800 ft 412 kts 339°
2026-05-06 21:51 49.97310 6.06534 31414 ft 409 kts 339°
2026-05-06 21:52 49.99972 6.05040 31031 ft 406 kts 339°
2026-05-06 21:52 50.02589 6.03558 30654 ft 403 kts 339°
2026-05-06 21:52 50.05224 6.02054 30282 ft 400 kts 339°
2026-05-06 21:52 50.07833 6.00558 29898 ft 397 kts 339°
2026-05-06 21:53 50.10393 5.99084 29477 ft 394 kts 339°
2026-05-06 21:53 50.12960 5.97605 29092 ft 389 kts 339°
2026-05-06 21:53 50.15472 5.96155 28709 ft 385 kts 338°
2026-05-06 21:53 50.17996 5.94696 28317 ft 382 kts 338°
2026-05-06 21:54 50.20454 5.93274 27948 ft 378 kts 338°
2026-05-06 21:54 50.22914 5.91849 27571 ft 375 kts 338°
2026-05-06 21:54 50.25360 5.90431 27198 ft 372 kts 338°
2026-05-06 21:54 50.27759 5.89038 26823 ft 369 kts 338°
2026-05-06 21:55 50.30145 5.87652 26459 ft 366 kts 338°
2026-05-06 21:55 50.32539 5.86259 26092 ft 363 kts 338°
2026-05-06 21:55 50.34905 5.84882 25734 ft 361 kts 338°
2026-05-06 21:55 50.37234 5.83524 25385 ft 359 kts 338°
2026-05-06 21:56 50.39574 5.82158 25032 ft 356 kts 338°
2026-05-06 21:56 50.41898 5.80801 24675 ft 354 kts 338°
2026-05-06 21:56 50.44184 5.79464 24329 ft 353 kts 338°
2026-05-06 21:56 50.46492 5.78113 23976 ft 351 kts 339°
2026-05-06 21:57 50.48769 5.76778 23630 ft 349 kts 339°
2026-05-06 21:57 50.51035 5.75449 23247 ft 348 kts 339°
2026-05-06 21:57 50.53303 5.74118 22845 ft 346 kts 339°
2026-05-06 21:57 50.55531 5.72809 22490 ft 343 kts 339°
2026-05-06 21:58 50.57792 5.71640 22121 ft 341 kts 349°
2026-05-06 21:58 50.60157 5.71619 21875 ft 336 kts 10°
2026-05-06 21:58 50.62403 5.72475 21593 ft 332 kts 14°
2026-05-06 21:58 50.64626 5.73461 21248 ft 331 kts 15°
2026-05-06 21:59 50.66833 5.74472 20918 ft 329 kts 15°
2026-05-06 21:59 50.69004 5.75463 20586 ft 327 kts 15°
2026-05-06 21:59 50.71179 5.76444 20257 ft 325 kts 14°
2026-05-06 21:59 50.73359 5.77418 19935 ft 323 kts 14°
2026-05-06 22:00 50.75527 5.78380 19603 ft 322 kts 14°
2026-05-06 22:00 50.77663 5.79324 19271 ft 321 kts 14°
2026-05-06 22:00 50.79830 5.80279 18944 ft 319 kts 14°
2026-05-06 22:00 50.81948 5.81212 18626 ft 318 kts 14°
2026-05-06 22:01 50.84073 5.82148 18300 ft 317 kts 14°
2026-05-06 22:01 50.86203 5.83086 17934 ft 316 kts 14°
2026-05-06 22:01 50.88296 5.84009 17583 ft 314 kts 14°
2026-05-06 22:01 50.90414 5.84944 17229 ft 313 kts 14°
2026-05-06 22:02 50.92505 5.85868 16926 ft 312 kts 14°
2026-05-06 22:02 50.94587 5.86788 16593 ft 314 kts 14°
2026-05-06 22:02 50.96718 5.87731 16261 ft 316 kts 14°
2026-05-06 22:02 50.98813 5.88660 15949 ft 315 kts 14°
2026-05-06 22:03 51.00927 5.89597 15615 ft 313 kts 14°
2026-05-06 22:03 51.02998 5.90516 15291 ft 311 kts 14°
2026-05-06 22:03 51.05082 5.91442 14978 ft 309 kts 14°
2026-05-06 22:03 51.07156 5.92364 14654 ft 308 kts 14°
2026-05-06 22:04 51.09209 5.93221 14325 ft 306 kts
2026-05-06 22:04 51.11319 5.93184 14051 ft 300 kts 351°
2026-05-06 22:04 51.13394 5.92699 13737 ft 299 kts 351°
2026-05-06 22:04 51.15428 5.92233 13382 ft 298 kts 351°
2026-05-06 22:05 51.17482 5.91782 13050 ft 296 kts 351°
2026-05-06 22:05 51.19505 5.91346 12729 ft 295 kts 352°
2026-05-06 22:05 51.21538 5.90913 12408 ft 293 kts 352°
2026-05-06 22:05 51.23556 5.90417 12083 ft 291 kts 343°
2026-05-06 22:06 51.25326 5.88939 11801 ft 286 kts 320°
2026-05-06 22:06 51.26609 5.86581 11502 ft 284 kts 306°
2026-05-06 22:06 51.27742 5.83985 11190 ft 283 kts 304°
2026-05-06 22:06 51.28841 5.81403 10889 ft 282 kts 304°
2026-05-06 22:07 51.29817 5.79107 10620 ft 281 kts 304°
2026-05-06 22:07 51.30956 5.76435 10308 ft 281 kts 304°
2026-05-06 22:07 51.32045 5.73890 10136 ft 275 kts 304°
2026-05-06 22:07 51.33114 5.71398 10015 ft 273 kts 304°
2026-05-06 22:08 51.34202 5.68866 9970 ft 277 kts 305°
2026-05-06 22:08 51.35277 5.66365 9959 ft 271 kts 305°
2026-05-06 22:08 51.36313 5.63955 9932 ft 259 kts 305°
2026-05-06 22:08 51.37299 5.61659 9942 ft 246 kts 305°
2026-05-06 22:09 51.38248 5.59449 9947 ft 234 kts 305°
2026-05-06 22:09 51.39157 5.57331 9953 ft 227 kts 305°
2026-05-06 22:09 51.40048 5.55252 9974 ft 231 kts 305°
2026-05-06 22:09 51.40984 5.53070 9984 ft 240 kts 305°
2026-05-06 22:10 51.41928 5.50868 9982 ft 242 kts 305°
2026-05-06 22:10 51.42563 5.49383 9978 ft 242 kts 305°
2026-05-06 22:10 51.43826 5.46428 9963 ft 241 kts 305°
2026-05-06 22:10 51.44452 5.44962 9963 ft 240 kts 305°
2026-05-06 22:11 51.45530 5.41874 9950 ft 239 kts 282°
2026-05-06 22:11 51.45584 5.40124 9972 ft 237 kts 261°
2026-05-06 22:11 51.44948 5.37711 9968 ft 238 kts 231°
2026-05-06 22:11 51.43275 5.35372 9978 ft 244 kts 216°
2026-05-06 22:12 51.42337 5.34337 9981 ft 247 kts 215°
2026-05-06 22:12 51.40908 5.32794 9967 ft 246 kts 215°
2026-05-06 22:12 51.39511 5.31275 9960 ft 244 kts 215°
2026-05-06 22:12 51.38116 5.29736 9950 ft 243 kts 215°
2026-05-06 22:13 51.36726 5.28191 9966 ft 241 kts 216°
2026-05-06 22:13 51.35356 5.26663 9960 ft 241 kts 216°
2026-05-06 22:13 51.33979 5.25125 9967 ft 240 kts 216°
2026-05-06 22:13 51.32584 5.23695 9950 ft 241 kts 202°
2026-05-06 22:14 51.30926 5.23319 9978 ft 240 kts 172°
2026-05-06 22:14 51.29376 5.24244 9970 ft 243 kts 143°
2026-05-06 22:14 51.28253 5.26249 9976 ft 245 kts 115°
2026-05-06 22:14 51.27862 5.28890 9963 ft 245 kts 85°
2026-05-06 22:15 51.28314 5.31425 9959 ft 240 kts 58°
2026-05-06 22:15 51.29428 5.33366 9934 ft 237 kts 27°
2026-05-06 22:15 51.30992 5.33815 9978 ft 232 kts 347°
2026-05-06 22:15 51.32364 5.32531 9988 ft 235 kts 313°
2026-05-06 22:16 51.33537 5.30644 9972 ft 241 kts 320°
2026-05-06 22:16 51.34754 5.28823 9962 ft 241 kts 309°
2026-05-06 22:16 51.35367 5.26391 9963 ft 236 kts 270°
2026-05-06 22:16 51.34853 5.23964 9963 ft 240 kts 229°
2026-05-06 22:17 51.33430 5.22598 9981 ft 245 kts 189°
2026-05-06 22:17 51.31745 5.22812 10002 ft 249 kts 168°
2026-05-06 22:17 51.30058 5.23526 9940 ft 251 kts 154°
2026-05-06 22:17 51.28686 5.25183 9971 ft 248 kts 127°
2026-05-06 22:18 51.27942 5.27636 9959 ft 245 kts 99°
2026-05-06 22:18 51.28013 5.30278 9961 ft 241 kts 70°
2026-05-06 22:18 51.28849 5.32577 9969 ft 238 kts 45°
2026-05-06 22:18 51.30245 5.33835 9961 ft 234 kts
2026-05-06 22:19 51.31807 5.33318 9958 ft 233 kts 325°
2026-05-06 22:19 51.32962 5.31520 9992 ft 237 kts 316°
2026-05-06 22:19 51.34204 5.29725 9979 ft 239 kts 318°
2026-05-06 22:19 51.35211 5.27651 9936 ft 239 kts 289°
2026-05-06 22:20 51.35242 5.25066 9965 ft 237 kts 249°
2026-05-06 22:20 51.34196 5.23051 9977 ft 242 kts 208°
2026-05-06 22:20 51.32568 5.22560 9973 ft 246 kts 170°
2026-05-06 22:20 51.30865 5.23113 9986 ft 250 kts 166°
2026-05-06 22:21 51.29306 5.24235 9962 ft 248 kts 140°
2026-05-06 22:21 51.28226 5.26333 9958 ft 245 kts 113°
2026-05-06 22:21 51.27882 5.28968 9966 ft 241 kts 84°
2026-05-06 22:21 51.28358 5.31496 9967 ft 238 kts 57°
2026-05-06 22:22 51.29467 5.33384 9933 ft 236 kts 26°
2026-05-06 22:22 51.31021 5.33775 9975 ft 232 kts 346°
2026-05-06 22:22 51.32388 5.32431 9990 ft 235 kts 313°
2026-05-06 22:22 51.33550 5.30586 9968 ft 240 kts 320°
2026-05-06 22:23 51.34773 5.28756 9958 ft 240 kts 309°
2026-05-06 22:23 51.35362 5.26312 9965 ft 237 kts 269°
2026-05-06 22:23 51.34829 5.23888 9962 ft 240 kts 229°
2026-05-06 22:23 51.33398 5.22544 9975 ft 244 kts 188°
2026-05-06 22:24 51.31722 5.22804 10000 ft 248 kts 167°
2026-05-06 22:24 51.30036 5.23532 9958 ft 252 kts 154°
2026-05-06 22:24 51.28663 5.25217 9972 ft 248 kts 126°
2026-05-06 22:24 51.27943 5.27632 9960 ft 242 kts 98°
2026-05-06 22:25 51.28026 5.30271 9970 ft 239 kts 70°
2026-05-06 22:25 51.28838 5.32545 9973 ft 239 kts 45°
2026-05-06 22:25 51.30258 5.33841 9967 ft 237 kts
2026-05-06 22:25 51.31832 5.33365 9962 ft 238 kts 327°
2026-05-06 22:26 51.33033 5.31540 9993 ft 239 kts 315°
2026-05-06 22:26 51.34271 5.29702 9975 ft 242 kts 317°
2026-05-06 22:26 51.35253 5.27539 9941 ft 245 kts 288°
2026-05-06 22:26 51.35230 5.24858 9968 ft 245 kts 248°
2026-05-06 22:27 51.34158 5.22823 9966 ft 246 kts 208°
2026-05-06 22:27 51.32526 5.22322 9968 ft 245 kts 168°
2026-05-06 22:27 51.30884 5.23053 9989 ft 245 kts 161°
2026-05-06 22:27 51.29334 5.24201 9959 ft 246 kts 141°
2026-05-06 22:28 51.28250 5.26263 9969 ft 244 kts 114°
2026-05-06 22:28 51.27883 5.28885 9963 ft 242 kts 85°
2026-05-06 22:28 51.28326 5.31407 9970 ft 239 kts 58°
2026-05-06 22:28 51.29436 5.33354 9935 ft 238 kts 27°
2026-05-06 22:29 51.31024 5.33802 9973 ft 235 kts 347°
2026-05-06 22:29 51.32398 5.32520 9980 ft 235 kts 313°
2026-05-06 22:29 51.33560 5.30638 9969 ft 238 kts 320°
2026-05-06 22:29 51.34761 5.28842 9963 ft 240 kts 309°
2026-05-06 22:30 51.35389 5.26399 9967 ft 241 kts 271°
2026-05-06 22:30 51.34903 5.23905 9961 ft 243 kts 231°
2026-05-06 22:30 51.33502 5.22454 9970 ft 243 kts 190°
2026-05-06 22:30 51.31836 5.22684 9997 ft 242 kts 164°
2026-05-06 22:31 51.30226 5.23423 9967 ft 246 kts 157°
2026-05-06 22:31 51.28818 5.24962 9968 ft 245 kts 129°
2026-05-06 22:31 51.28007 5.27299 9966 ft 244 kts 102°
2026-05-06 22:31 51.27973 5.29974 9960 ft 241 kts 73°
2026-05-06 22:32 51.28712 5.32316 9974 ft 239 kts 48°
2026-05-06 22:32 51.30064 5.33781 9946 ft 237 kts 11°
2026-05-06 22:32 51.31664 5.33494 9962 ft 236 kts 331°
2026-05-06 22:32 51.32870 5.31768 9994 ft 236 kts 314°
2026-05-06 22:33 51.34080 5.29960 9973 ft 238 kts 319°
2026-05-06 22:33 51.35140 5.27950 9934 ft 241 kts 294°
2026-05-06 22:33 51.35299 5.25317 9976 ft 242 kts 254°
2026-05-06 22:33 51.34378 5.23148 9961 ft 244 kts 214°
2026-05-06 22:34 51.32791 5.22399 9963 ft 243 kts 173°
2026-05-06 22:34 51.31138 5.22984 9992 ft 243 kts 165°
2026-05-06 22:34 51.29559 5.23956 9957 ft 247 kts 144°
2026-05-06 22:34 51.28377 5.25907 9966 ft 244 kts 117°
2026-05-06 22:35 51.27892 5.28461 9957 ft 239 kts 89°
2026-05-06 22:35 51.28206 5.30986 9967 ft 234 kts 62°
2026-05-06 22:35 51.29176 5.33056 9955 ft 232 kts 35°
2026-05-06 22:35 51.30651 5.33811 9977 ft 228 kts 354°
2026-05-06 22:36 51.32093 5.32781 9972 ft 233 kts 315°
2026-05-06 22:36 51.33232 5.30937 9974 ft 238 kts 320°
2026-05-06 22:36 51.34499 5.29182 9973 ft 240 kts 316°
2026-05-06 22:36 51.35338 5.26901 9954 ft 240 kts 280°
2026-05-06 22:37 51.35093 5.24344 9959 ft 240 kts 239°
2026-05-06 22:37 51.33851 5.22612 9964 ft 241 kts 198°
2026-05-06 22:37 51.32207 5.22538 9989 ft 243 kts 165°
2026-05-06 22:37 51.30539 5.23231 9977 ft 250 kts 161°
2026-05-06 22:38 51.29041 5.24587 9965 ft 246 kts 134°
2026-05-06 22:38 51.28109 5.26789 9957 ft 241 kts 107°
2026-05-06 22:38 51.27922 5.29411 9960 ft 236 kts 78°
2026-05-06 22:38 51.28489 5.31795 9973 ft 232 kts 54°
2026-05-06 22:39 51.29659 5.33526 9933 ft 230 kts 20°
2026-05-06 22:39 51.31218 5.33630 9973 ft 230 kts 339°
2026-05-06 22:39 51.32478 5.32119 9999 ft 233 kts 315°
2026-05-06 22:39 51.33683 5.30328 9972 ft 237 kts 322°
2026-05-06 22:40 51.34881 5.28528 9940 ft 240 kts 307°
2026-05-06 22:40 51.35396 5.26041 9960 ft 238 kts 266°
2026-05-06 22:40 51.34770 5.23627 9972 ft 241 kts 225°
2026-05-06 22:40 51.33319 5.22418 9977 ft 243 kts 185°
2026-05-06 22:41 51.29997 5.23561 9960 ft 251 kts 152°
2026-05-06 22:41 51.28652 5.25249 9966 ft 244 kts 125°
2026-05-06 22:41 51.27954 5.27670 9962 ft 238 kts 97°
2026-05-06 22:42 51.28040 5.30245 9961 ft 233 kts 70°
2026-05-06 22:42 51.28805 5.32461 9977 ft 231 kts 47°
2026-05-06 22:42 51.30154 5.33765 9963 ft 228 kts
2026-05-06 22:42 51.31673 5.33301 9958 ft 232 kts 326°
2026-05-06 22:43 51.32855 5.31504 9994 ft 235 kts 317°
2026-05-06 22:43 51.34089 5.29792 9977 ft 239 kts 321°
2026-05-06 22:43 51.35171 5.27764 9932 ft 239 kts 293°
2026-05-06 22:43 51.35293 5.25163 9969 ft 239 kts 252°
2026-05-06 22:44 51.34338 5.23054 9978 ft 243 kts 212°
2026-05-06 22:44 51.32727 5.22388 9968 ft 243 kts 171°
2026-05-06 22:44 51.31083 5.23003 9991 ft 247 kts 163°
2026-05-06 22:44 51.29506 5.24064 9961 ft 249 kts 144°
2026-05-06 22:45 51.28333 5.26043 9962 ft 243 kts 116°
2026-05-06 22:45 51.27886 5.28594 9951 ft 237 kts 87°
2026-05-06 22:45 51.28236 5.31075 9974 ft 231 kts 61°
2026-05-06 22:45 51.29209 5.33088 9953 ft 229 kts 34°
2026-05-06 22:46 51.30687 5.33772 9980 ft 228 kts 353°
2026-05-06 22:46 51.32121 5.32664 9984 ft 235 kts 316°
2026-05-06 22:46 51.33295 5.30830 9971 ft 241 kts 321°
2026-05-06 22:46 51.34576 5.29058 9968 ft 242 kts 315°
2026-05-06 22:47 51.35359 5.26750 9943 ft 242 kts 278°
2026-05-06 22:47 51.35044 5.24138 9971 ft 243 kts 237°
2026-05-06 22:47 51.33765 5.22466 9976 ft 245 kts 197°
2026-05-06 22:47 51.32077 5.22447 9984 ft 246 kts 162°
2026-05-06 22:48 51.30413 5.23272 9976 ft 251 kts 158°
2026-05-06 22:48 51.28949 5.24703 9967 ft 247 kts 131°
2026-05-06 22:48 51.28060 5.26982 9963 ft 242 kts 104°
2026-05-06 22:48 51.27934 5.29586 9963 ft 237 kts 77°
2026-05-06 22:49 51.28565 5.31984 9976 ft 233 kts 52°
2026-05-06 22:49 51.29787 5.33616 9938 ft 231 kts 17°
2026-05-06 22:49 51.31336 5.33591 9961 ft 231 kts 337°
2026-05-06 22:49 51.32587 5.31982 9994 ft 234 kts 315°
2026-05-06 22:50 51.33785 5.30210 9976 ft 239 kts 321°
2026-05-06 22:50 51.34972 5.28304 9941 ft 244 kts 304°
2026-05-06 22:50 51.35381 5.25713 9971 ft 244 kts 263°
2026-05-06 22:50 51.34673 5.23323 9968 ft 247 kts 223°
2026-05-06 22:51 51.33136 5.22148 9976 ft 250 kts 183°
2026-05-06 22:51 51.31458 5.22642 9997 ft 249 kts 159°
2026-05-06 22:51 51.29820 5.23658 9965 ft 253 kts 149°
2026-05-06 22:51 51.28529 5.25462 9973 ft 248 kts 121°
2026-05-06 22:52 51.27904 5.27983 9964 ft 241 kts 93°
2026-05-06 22:52 51.28088 5.30543 9965 ft 232 kts 66°
2026-05-06 22:52 51.28931 5.32693 9967 ft 228 kts 43°
2026-05-06 22:52 51.30323 5.33743 9975 ft 224 kts
2026-05-06 22:53 51.31794 5.32996 9971 ft 233 kts 321°
2026-05-06 22:53 51.32973 5.31164 9981 ft 240 kts 321°
2026-05-06 22:53 51.34249 5.29469 9973 ft 240 kts 320°
2026-05-06 22:53 51.35249 5.27346 9942 ft 241 kts 289°
2026-05-06 22:54 51.35224 5.24710 9972 ft 242 kts 248°
2026-05-06 22:54 51.34144 5.22710 9977 ft 246 kts 207°
2026-05-06 22:54 51.32497 5.22236 9973 ft 247 kts 167°
2026-05-06 22:54 51.30839 5.23034 9992 ft 250 kts 160°
2026-05-06 22:55 51.29279 5.24295 9941 ft 251 kts 139°
2026-05-06 22:55 51.28212 5.26396 9973 ft 243 kts 111°
2026-05-06 22:55 51.27887 5.28978 9963 ft 235 kts 83°
2026-05-06 22:55 51.28351 5.31431 9978 ft 230 kts 58°
2026-05-06 22:56 51.29402 5.33311 9946 ft 231 kts 28°